RA601 ULPB-ULPB

Flight info

Callsign RA601
Flight time 0h 40m
Altitude 2000
Route DCT
Aircraft DA62/L-SDFGRY/C

Departure

Time 2026-05-04 09:08
Airport Petrozavodsk Airport (ULPB)

Arrival

Time 2026-05-04 09:49
Airport Petrozavodsk Airport (ULPB)
Time Latitude Longitude Altitude Speed Heading
2026-05-04 08:46 61.87946 34.15384 178 ft 0 kts 113°
2026-05-04 09:01 61.87943 34.15400 178 ft 7 kts 112°
2026-05-04 09:01 61.87896 34.15368 178 ft 10 kts 249°
2026-05-04 09:01 61.87862 34.15236 178 ft 11 kts 281°
2026-05-04 09:02 61.87903 34.15022 171 ft 20 kts 297°
2026-05-04 09:02 61.88022 34.15023 165 ft 28 kts 26°
2026-05-04 09:02 61.88278 34.15274 166 ft 45 kts 24°
2026-05-04 09:02 61.88569 34.15530 169 ft 46 kts 23°
2026-05-04 09:03 61.88870 34.15808 168 ft 47 kts 24°
2026-05-04 09:03 61.89159 34.16058 167 ft 41 kts 22°
2026-05-04 09:03 61.89385 34.16264 165 ft 22 kts 27°
2026-05-04 09:03 61.89400 34.16398 172 ft 4 kts 131°
2026-05-04 09:04 61.89393 34.16417 174 ft 6 kts 125°
2026-05-04 09:04 61.89428 34.16543 177 ft 16 kts 19°
2026-05-04 09:04 61.89454 34.16563 177 ft 4 kts 36°
2026-05-04 09:04 61.89428 34.16537 177 ft 9 kts 211°
2026-05-04 09:05 61.89425 34.16533 177 ft 0 kts 198°
2026-05-04 09:06 61.89404 34.16517 177 ft 0 kts 200°
2026-05-04 09:07 61.89286 34.16181 165 ft 43 kts 205°
2026-05-04 09:08 61.88827 34.15769 178 ft 94 kts 202°
2026-05-04 09:08 61.88166 34.15122 317 ft 114 kts 201°
2026-05-04 09:08 61.87429 34.14436 597 ft 115 kts 206°
2026-05-04 09:08 61.86769 34.13422 839 ft 120 kts 218°
2026-05-04 09:09 61.86238 34.12049 1082 ft 126 kts 243°
2026-05-04 09:09 61.86218 34.10138 1259 ft 137 kts 278°
2026-05-04 09:09 61.86802 34.08475 1432 ft 153 kts 330°
2026-05-04 09:09 61.87846 34.08345 1603 ft 158 kts 22°
2026-05-04 09:10 61.88734 34.09723 1782 ft 161 kts 45°
2026-05-04 09:10 61.89548 34.11312 1973 ft 158 kts 45°
2026-05-04 09:10 61.90380 34.12909 1990 ft 165 kts 44°
2026-05-04 09:10 61.91253 34.14564 1995 ft 171 kts 44°
2026-05-04 09:11 61.92153 34.16262 1996 ft 175 kts 44°
2026-05-04 09:11 61.93070 34.17996 1999 ft 178 kts 44°
2026-05-04 09:11 61.93987 34.19734 1997 ft 179 kts 43°
2026-05-04 09:11 61.94912 34.21485 2001 ft 175 kts 44°
2026-05-04 09:12 61.95816 34.23195 1993 ft 172 kts 44°
2026-05-04 09:12 61.96694 34.24858 1998 ft 168 kts 44°
2026-05-04 09:14 62.02658 34.36216 1994 ft 162 kts 44°
2026-05-04 09:14 62.03495 34.37814 1996 ft 162 kts 45°
2026-05-04 09:14 62.04332 34.39416 1993 ft 161 kts 44°
2026-05-04 09:14 62.05163 34.41005 2001 ft 161 kts 44°
2026-05-04 09:15 62.05993 34.42594 2000 ft 160 kts 44°
2026-05-04 09:15 62.06819 34.44177 2000 ft 158 kts 44°
2026-05-04 09:15 62.07638 34.45746 2004 ft 159 kts 44°
2026-05-04 09:15 62.08462 34.47328 2001 ft 159 kts 45°
2026-05-04 09:17 62.15145 34.60199 2008 ft 164 kts 43°
2026-05-04 09:18 62.15988 34.61828 2007 ft 170 kts 44°
2026-05-04 09:18 62.16886 34.63573 2013 ft 178 kts 44°
2026-05-04 09:18 62.17822 34.65390 2016 ft 184 kts 43°
2026-05-04 09:18 62.18776 34.67235 2022 ft 186 kts 44°
2026-05-04 09:19 62.19741 34.69104 2015 ft 188 kts 43°
2026-05-04 09:19 62.20712 34.70987 2010 ft 189 kts 43°
2026-05-04 09:19 62.21689 34.72888 2009 ft 190 kts 43°
2026-05-04 09:19 62.22672 34.74800 2010 ft 191 kts 43°
2026-05-04 09:20 62.23658 34.76719 2011 ft 191 kts 43°
2026-05-04 09:20 62.24641 34.78629 2015 ft 191 kts 44°
2026-05-04 09:20 62.25625 34.80551 2016 ft 191 kts 44°
2026-05-04 09:20 62.26614 34.82481 2016 ft 193 kts 43°
2026-05-04 09:21 62.27600 34.84407 2006 ft 193 kts 44°
2026-05-04 09:21 62.28594 34.86348 2011 ft 193 kts 43°
2026-05-04 09:21 62.29590 34.88296 2010 ft 193 kts 44°
2026-05-04 09:21 62.30583 34.90243 2005 ft 193 kts 44°
2026-05-04 09:22 62.31563 34.92164 2008 ft 192 kts 44°
2026-05-04 09:22 62.32546 34.94094 2017 ft 191 kts 43°
2026-05-04 09:22 62.33525 34.96016 2010 ft 190 kts 43°
2026-05-04 09:22 62.34504 34.97939 2004 ft 191 kts 44°
2026-05-04 09:23 62.35487 34.99879 2006 ft 192 kts 44°
2026-05-04 09:23 62.36462 35.01821 2013 ft 191 kts 45°
2026-05-04 09:23 62.37436 35.03769 2009 ft 190 kts 44°
2026-05-04 09:23 62.38391 35.05699 2012 ft 191 kts 45°
2026-05-04 09:25 62.45370 35.15295 2004 ft 148 kts 305°
2026-05-04 09:25 62.45703 35.13339 2006 ft 137 kts 281°
2026-05-04 09:26 62.45876 35.11366 2001 ft 130 kts 265°
2026-05-04 09:26 62.45439 35.09800 2002 ft 124 kts 215°
2026-05-04 09:26 62.44788 35.08629 2002 ft 120 kts 219°
2026-05-04 09:26 62.44176 35.07440 2007 ft 115 kts 220°
2026-05-04 09:27 62.43545 35.06238 2017 ft 135 kts 220°
2026-05-04 09:27 62.42796 35.04778 2023 ft 153 kts 220°
2026-05-04 09:27 62.41980 35.03190 2018 ft 161 kts 220°
2026-05-04 09:27 62.41128 35.01532 2016 ft 167 kts 220°
2026-05-04 09:28 62.40266 34.99849 2018 ft 171 kts 220°
2026-05-04 09:28 62.39377 34.98106 2013 ft 174 kts 220°
2026-05-04 09:28 62.38477 34.96345 2016 ft 175 kts 219°
2026-05-04 09:28 62.37560 34.94584 2014 ft 177 kts 220°
2026-05-04 09:29 62.36607 34.92909 2014 ft 177 kts 215°
2026-05-04 09:29 62.35557 34.91514 2005 ft 177 kts 207°
2026-05-04 09:29 62.34487 34.90303 2010 ft 175 kts 207°
2026-05-04 09:29 62.33399 34.89089 2013 ft 177 kts 207°
2026-05-04 09:30 62.32311 34.87845 2014 ft 176 kts 206°
2026-05-04 09:30 62.31231 34.86600 2013 ft 176 kts 207°
2026-05-04 09:30 62.30142 34.85345 2000 ft 178 kts 208°
2026-05-04 09:30 62.29053 34.84103 2000 ft 177 kts 207°
2026-05-04 09:31 62.27961 34.82889 2001 ft 176 kts 206°
2026-05-04 09:31 62.26865 34.81681 2008 ft 178 kts 207°
2026-05-04 09:31 62.25784 34.80428 2006 ft 179 kts 211°
2026-05-04 09:31 62.24772 34.78861 2003 ft 179 kts 218°
2026-05-04 09:32 62.23812 34.77143 2002 ft 179 kts 218°
2026-05-04 09:32 62.23181 34.76003 2001 ft 177 kts 218°
2026-05-04 09:34 62.16604 34.64189 2010 ft 178 kts 219°
2026-05-04 09:34 62.15654 34.62485 2010 ft 177 kts 218°
2026-05-04 09:34 62.14722 34.60781 2006 ft 175 kts 219°
2026-05-04 09:34 62.13837 34.59176 2003 ft 157 kts 218°
2026-05-04 09:35 62.13043 34.57735 1992 ft 142 kts 219°
2026-05-04 09:35 62.12326 34.56411 1991 ft 131 kts 218°
2026-05-04 09:35 62.11670 34.55189 1991 ft 123 kts 218°
2026-05-04 09:35 62.11012 34.53961 2003 ft 131 kts 218°
2026-05-04 09:37 62.05438 34.45016 2004 ft 147 kts 213°
2026-05-04 09:37 62.04606 34.43718 2003 ft 148 kts 218°
2026-05-04 09:38 62.03821 34.42264 2001 ft 150 kts 220°
2026-05-04 09:38 62.03034 34.40801 1997 ft 150 kts 219°
2026-05-04 09:38 62.02258 34.39358 1997 ft 149 kts 219°
2026-05-04 09:38 62.01473 34.37909 1996 ft 149 kts 219°
2026-05-04 09:39 62.00684 34.36464 1994 ft 149 kts 219°
2026-05-04 09:39 61.99907 34.35007 1997 ft 147 kts 220°
2026-05-04 09:39 61.99128 34.33564 2001 ft 150 kts 219°
2026-05-04 09:39 61.98344 34.32137 2000 ft 150 kts 217°
2026-05-04 09:40 61.97526 34.30746 2004 ft 151 kts 217°
2026-05-04 09:40 61.96723 34.29342 2007 ft 148 kts 214°
2026-05-04 09:40 61.95898 34.27992 2008 ft 151 kts 216°
2026-05-04 09:40 61.95085 34.26627 2008 ft 150 kts 216°
2026-05-04 09:41 61.94248 34.25294 2000 ft 152 kts 213°
2026-05-04 09:42 61.88409 34.15225 2005 ft 159 kts 219°
2026-05-04 09:43 61.87581 34.13672 2011 ft 155 kts 221°
2026-05-04 09:43 61.87039 34.11746 1882 ft 162 kts 269°
2026-05-04 09:43 61.87537 34.09700 1633 ft 164 kts 318°
2026-05-04 09:43 61.88594 34.08960 1425 ft 162 kts 358°
2026-05-04 09:44 61.89694 34.09169 1218 ft 158 kts
2026-05-04 09:44 61.90716 34.09829 1092 ft 150 kts 25°
2026-05-04 09:44 61.91610 34.10811 960 ft 146 kts 31°
2026-05-04 09:46 61.90044 34.16836 326 ft 87 kts 201°
2026-05-04 09:46 61.89507 34.16373 184 ft 81 kts 200°
2026-05-04 09:46 61.89071 34.15991 169 ft 56 kts 202°
2026-05-04 09:47 61.88613 34.15594 168 ft 65 kts 204°
2026-05-04 09:47 61.88132 34.15142 165 ft 70 kts 205°
2026-05-04 09:49 61.87911 34.15357 178 ft 0 kts 111°